Weather in Urumqi

China     43˚48′55″N   87˚35′41″E
temp.,
°C
wind,
m/s
gust,
m/s
humid.,
%
clouds,
%
prec.,
mm/h
press.,
hPa
HPBL,
m
27 november, fri
fri2723:00−8˚nnw2273100 0.0 1035289
02:00−8˚se2272100 0.0 1036108
05:00−5˚s3557100 0.1 1036162
08:00−4˚se3657100 0.3 1037167
11:00−5˚sse375946 0.0 1037290
14:00−1˚ese7114223 0.0 1036508
17:00−2˚ene34480 0.0 1034271
20:00−5˚ene116142 0.0 103557
28 november, sat
sat2823:00−5˚se23500 0.0 103545
02:00−5˚se344912 0.0 103471
05:00−6˚se125323 0.0 103327
08:00−5˚se334927 0.0 103264
11:00−4˚se244628 0.0 1032161
14:00−2˚ne334961 0.0 1030331
17:00−3˚ne235398 0.0 1029184
20:00−5˚nnw236471 0.0 1030109
29 november, sun
sun2923:00−6˚nnw387599 0.0 1035505
02:00−5˚se2370100 0.0 1037215
05:00−3˚ne0288100 0.1 103646
08:00−4˚ene1197100 0.7 103726
11:00−3˚nnw2296100 0.6 1038127
14:00−2˚nnw2493100 1.5 1036336
17:00−3˚n3595100 1.7 1036387
20:00−4˚nnw2397100 3.1 1038194
30 november, mon
mon3023:00−5˚nnw3697100 1.6 1039336
02:00−5˚nnw2397100 2.2 1039123
05:00−6˚nw129798 0.3 103926
08:00−7˚wnw119597 0.4 103921
11:00−6˚wnw009082 0.0 103932
14:00−4˚n238887 0.0 1037363
17:00−5˚nnw339599 0.0 1036320
20:00−6˚wnw2395100 0.2 1037233
1 december, tue
tue123:00−9˚w119497 0.1 103830
02:00−9˚wsw229096 0.1 103738
05:00−9˚wsw2293100 0.1 103752
08:00−9˚wsw339199 0.3 103757
11:00−7˚w349099 0.2 1038180
14:00−5˚nnw459399 0.8 1037450
17:00−6˚nnw4596100 0.5 1038393
20:00−8˚nw2399100 0.7 104067